ROMMA est une association bénévole à but non lucratif. Votre soutien est indispensable : ADHERER à ROMMA ou FAIRE un DON

Engins - (38, Isère)

Vercors (906 m)   Longitude: 05° 37' E   Latitude: 45° 11' N Station partenaire n°139
 

Détail journalier du     <<     >>

Température Precipitation Humidité Vent Dir Rafale Dir. rafale Ensol.
Heure (°C) (mm) (%) (km/h) (km/h) (min)
01:00 11.00904O11ONO0
02:00 12.20826OSO19SO0
03:00 12.60765SO16OSO0
04:00 11.80786O15OSO0
05:00 12.00785O13OSO0
06:00 12.70764O18OSO0
07:00 12.40764OSO10O0
08:00 12.60744SO11OSO0
09:00 12.40813SO13SSE10
10:00 12.80803N6NO0
11:00 14.10773SO13S0
12:00 14.20724S16SSE0
13:00 14.60.2805SSO16SSE0
14:00 16.40743S11SSE25
15:00 15.70764NNE15N10
16:00 14.90821NNE6N0
17:00 13.40.2892NO5NNE0
18:00 12.60903O6O0
19:00 12.50896OSO13OSO0
20:00 12.70855OSO13SO0
21:00 12.90845OSO15O0
22:00 12.20844OSO13O0
23:00 12.80786OSO15OSO0
minuit 14.10728S29SO0

Graphique du 18-10-2019

 

Serveur OMMA